TimeCST,TemperatureF,Dew PointF,Humidity,Sea Level PressureIn,VisibilityMPH,Wind Direction,Wind SpeedMPH,Gust SpeedMPH,PrecipitationIn,Events,Conditions,WindDirDegrees,DateUTC
12:15 AM,41.0,28.4,61,30.22,10.0,East,5.8,-,N/A,,Clear,80,2012-11-04 05:15:00
12:35 AM,42.8,28.4,57,30.22,10.0,ESE,4.6,-,N/A,,Clear,120,2012-11-04 05:35:00
12:55 AM,42.8,28.4,57,30.22,10.0,ESE,4.6,-,N/A,,Clear,120,2012-11-04 05:55:00
1:15 AM,42.8,28.4,57,30.22,10.0,ESE,5.8,-,N/A,,Clear,120,2012-11-04 06:15:00
1:35 AM,41.0,28.4,61,30.22,10.0,SE,4.6,-,N/A,,Clear,130,2012-11-04 06:35:00
1:55 AM,41.0,28.4,61,30.22,10.0,SSE,6.9,-,N/A,,Clear,160,2012-11-04 06:55:00
1:15 AM,39.2,28.4,65,30.23,10.0,SSE,4.6,-,N/A,,Clear,160,2012-11-04 07:15:00
1:35 AM,41.0,28.4,61,30.23,10.0,SSE,5.8,-,N/A,,Clear,160,2012-11-04 07:35:00
1:55 AM,41.0,30.2,65,30.23,10.0,SSE,6.9,-,N/A,,Clear,150,2012-11-04 07:55:00
2:15 AM,39.2,28.4,65,30.22,10.0,SSE,8.1,-,N/A,,Clear,150,2012-11-04 08:15:00
2:35 AM,35.6,28.4,75,30.22,10.0,South,5.8,-,N/A,,Clear,170,2012-11-04 08:35:00
2:55 AM,35.6,28.4,75,30.23,10.0,South,6.9,-,N/A,,Clear,180,2012-11-04 08:55:00
3:15 AM,35.6,28.4,75,30.22,10.0,South,9.2,-,N/A,,Clear,180,2012-11-04 09:15:00
3:35 AM,33.8,26.6,75,30.21,10.0,South,9.2,-,N/A,,Clear,190,2012-11-04 09:35:00
3:55 AM,33.8,26.6,75,30.21,10.0,South,10.4,-,N/A,,Clear,190,2012-11-04 09:55:00
4:15 AM,33.8,26.6,75,30.22,10.0,South,8.1,-,N/A,,Clear,190,2012-11-04 10:15:00
4:35 AM,33.8,26.6,75,30.21,10.0,South,8.1,-,N/A,,Clear,190,2012-11-04 10:35:00
4:55 AM,33.8,26.6,75,30.22,10.0,South,8.1,-,N/A,,Clear,180,2012-11-04 10:55:00
5:15 AM,33.8,28.4,81,30.21,10.0,South,9.2,-,N/A,,Clear,190,2012-11-04 11:15:00
5:35 AM,35.6,28.4,75,30.21,10.0,South,9.2,-,N/A,,Clear,180,2012-11-04 11:35:00
5:55 AM,33.8,28.4,81,30.21,10.0,South,8.1,-,N/A,,Clear,180,2012-11-04 11:55:00
6:15 AM,33.8,28.4,81,30.21,10.0,South,6.9,-,N/A,,Clear,180,2012-11-04 12:15:00
6:35 AM,35.6,28.4,75,30.21,10.0,South,9.2,-,N/A,,Clear,180,2012-11-04 12:35:00
6:55 AM,33.8,28.4,81,30.20,10.0,South,8.1,-,N/A,,Clear,180,2012-11-04 12:55:00
7:15 AM,32.0,28.4,87,30.21,10.0,South,6.9,-,N/A,,Clear,190,2012-11-04 13:15:00
7:35 AM,33.8,28.4,81,30.22,10.0,South,6.9,-,N/A,,Clear,190,2012-11-04 13:35:00
7:55 AM,37.4,30.2,75,30.22,10.0,South,3.5,-,N/A,,Clear,180,2012-11-04 13:55:00
8:15 AM,42.8,32.0,66,30.22,10.0,South,4.6,-,N/A,,Clear,190,2012-11-04 14:15:00
8:35 AM,46.4,32.0,57,30.22,10.0,South,8.1,-,N/A,,Clear,190,2012-11-04 14:35:00
8:55 AM,50.0,32.0,50,30.22,10.0,SSW,8.1,-,N/A,,Clear,210,2012-11-04 14:55:00
9:15 AM,51.8,32.0,47,30.22,10.0,SW,9.2,-,N/A,,Clear,230,2012-11-04 15:15:00
9:35 AM,53.6,32.0,44,30.21,10.0,SW,9.2,-,N/A,,Clear,230,2012-11-04 15:35:00
9:55 AM,55.4,32.0,41,30.21,10.0,SW,9.2,-,N/A,,Clear,220,2012-11-04 15:55:00
10:15 AM,59.0,32.0,36,30.21,10.0,WSW,9.2,-,N/A,,Clear,240,2012-11-04 16:15:00
10:35 AM,59.0,32.0,36,30.21,10.0,WSW,11.5,16.1,N/A,,Clear,240,2012-11-04 16:35:00
10:55 AM,60.8,33.8,36,30.21,10.0,WSW,9.2,-,N/A,,Clear,250,2012-11-04 16:55:00
11:15 AM,60.8,33.8,36,30.19,10.0,West,10.4,-,N/A,,Clear,260,2012-11-04 17:15:00
11:35 AM,62.6,35.6,37,30.19,10.0,WSW,8.1,-,N/A,,Clear,240,2012-11-04 17:35:00
11:55 AM,62.6,35.6,37,30.18,10.0,WSW,6.9,-,N/A,,Clear,250,2012-11-04 17:55:00
12:15 PM,64.4,35.6,34,30.16,10.0,WSW,6.9,-,N/A,,Clear,250,2012-11-04 18:15:00
12:35 PM,66.2,35.6,32,30.14,10.0,WSW,6.9,-,N/A,,Clear,250,2012-11-04 18:35:00
12:55 PM,66.2,35.6,32,30.13,10.0,WSW,5.8,-,N/A,,Clear,240,2012-11-04 18:55:00
1:15 PM,68.0,35.6,30,30.13,10.0,SW,6.9,-,N/A,,Clear,220,2012-11-04 19:15:00
1:35 PM,68.0,35.6,30,30.12,10.0,SSW,10.4,16.1,N/A,,Clear,210,2012-11-04 19:35:00
1:55 PM,69.8,35.6,28,30.11,10.0,WSW,10.4,-,N/A,,Clear,250,2012-11-04 19:55:00
2:15 PM,68.0,35.6,30,30.10,10.0,WSW,15.0,18.4,N/A,,Clear,250,2012-11-04 20:15:00
2:35 PM,68.0,35.6,30,30.10,10.0,WSW,6.9,-,N/A,,Clear,250,2012-11-04 20:35:00
2:55 PM,69.8,35.6,28,30.09,10.0,WSW,8.1,-,N/A,,Clear,250,2012-11-04 20:55:00
3:15 PM,69.8,33.8,27,30.08,10.0,West,9.2,-,N/A,,Clear,260,2012-11-04 21:15:00
3:35 PM,69.8,33.8,27,30.08,10.0,SW,6.9,-,N/A,,Clear,230,2012-11-04 21:35:00
3:55 PM,69.8,33.8,27,30.07,10.0,WSW,6.9,-,N/A,,Clear,240,2012-11-04 21:55:00
4:15 PM,71.6,33.8,25,30.07,10.0,WSW,9.2,-,N/A,,Clear,240,2012-11-04 22:15:00
4:35 PM,69.8,32.0,25,30.07,10.0,West,10.4,-,N/A,,Clear,260,2012-11-04 22:35:00
4:55 PM,69.8,33.8,27,30.07,10.0,West,10.4,-,N/A,,Clear,260,2012-11-04 22:55:00
5:15 PM,68.0,32.0,26,30.08,10.0,West,8.1,-,N/A,,Clear,270,2012-11-04 23:15:00
5:35 PM,62.6,32.0,32,30.08,10.0,West,6.9,-,N/A,,Clear,270,2012-11-04 23:35:00
5:55 PM,62.6,33.8,34,30.08,10.0,West,5.8,-,N/A,,Clear,270,2012-11-04 23:55:00
6:15 PM,59.0,33.8,39,30.09,10.0,South,8.1,-,N/A,,Clear,190,2012-11-05 00:15:00
6:35 PM,55.4,35.6,47,30.10,10.0,South,8.1,-,N/A,,Clear,170,2012-11-05 00:35:00
6:55 PM,51.8,33.8,50,30.10,10.0,South,8.1,-,N/A,,Clear,170,2012-11-05 00:55:00
7:15 PM,51.8,33.8,50,30.11,10.0,South,6.9,-,N/A,,Clear,170,2012-11-05 01:15:00
7:35 PM,53.6,33.8,47,30.12,10.0,South,5.8,-,N/A,,Clear,170,2012-11-05 01:35:00
7:55 PM,50.0,33.8,54,30.12,10.0,South,8.1,-,N/A,,Clear,170,2012-11-05 01:55:00
8:15 PM,50.0,33.8,54,30.12,10.0,South,9.2,-,N/A,,Clear,180,2012-11-05 02:15:00
8:35 PM,48.2,33.8,58,30.12,10.0,South,9.2,-,N/A,,Clear,180,2012-11-05 02:35:00
8:55 PM,48.2,33.8,58,30.13,10.0,South,9.2,-,N/A,,Clear,190,2012-11-05 02:55:00
9:15 PM,46.4,33.8,62,30.13,10.0,South,9.2,-,N/A,,Clear,180,2012-11-05 03:15:00
9:35 PM,44.6,33.8,66,30.14,10.0,South,8.1,-,N/A,,Clear,190,2012-11-05 03:35:00
9:55 PM,46.4,33.8,62,30.14,10.0,South,9.2,-,N/A,,Clear,190,2012-11-05 03:55:00
10:15 PM,48.2,33.8,58,30.14,10.0,South,10.4,-,N/A,,Clear,190,2012-11-05 04:15:00
10:35 PM,46.4,33.8,62,30.14,10.0,SSW,9.2,-,N/A,,Clear,200,2012-11-05 04:35:00
10:55 PM,46.4,33.8,62,30.14,10.0,SSW,10.4,-,N/A,,Clear,200,2012-11-05 04:55:00